Weather History for Los Alamitos, CA

Change the Weather History Date:

Monday, January 7, 2013

  Actual Average Record
Temperature  
Mean Temperature 50 °F -  
Max Temperature 64 °F 66 °F 84 °F (2003)
Min Temperature 37 °F 49 °F 37 °F (2013)
Degree Days  
Heating Degree Days 14    
Moisture  
Dew Point 41 °F    
Average Humidity 84    
Maximum Humidity 100    
Minimum Humidity 33    
Precipitation  
Precipitation 0.00 in - - ()
Sea Level Pressure  
Sea Level Pressure 30.04 in    
Wind  
Wind Speed 3 mph (North)    
Max Wind Speed 10 mph    
Max Gust Speed -    
Visibility 7 miles    
Events      
Averages and records for this station are not official NWS values.
T = Trace of Precipitation, MM = Missing Value Source: NWS Daily Summary

Daily Weather History Graph

Daily Weather History Graph

Search for Another Location

Airport:

Trip Planner

Search our weather history database for the weather conditions in past years. The results will help you decide how hot, cold, wet, or windy it might be!

Date:

Astronomy

Jan. 07, 2013 Rise Set
Actual Time 6:57 AM PST 4:59 PM PST
Civil Twilight 6:30 AM PST 5:27 PM PST
Nautical Twilight 5:59 AM PST 5:58 PM PST
Astronomical Twilight 5:29 AM PST 6:28 PM PST
Moon 2:30 AM PST (1/7) 1:12 PM PST (1/7)
Length of Visible Light 10h 56m
Length of Day
10h 01m
Waning Crescent, 21% of the Moon is Illuminated
Jan 7
Waning Crescent
Jan 11
New
Jan 18
First Quarter
Jan 26
Full
Feb 3
Last Quarter

Hourly Weather History & Observations

Time (PST) Temp. Windchill Dew Point Humidity Pressure Visibility Wind Dir Wind Speed Gust Speed Precip Events Conditions
12:23 AM 44.6 °F 43.1 °F 44.6 °F 100% 30.03 in 2.5 mi NNW 3.5 mph - N/A   Scattered Clouds
12:28 AM 44.6 °F 43.1 °F 44.6 °F 100% 30.02 in 4.0 mi NW 3.5 mph - N/A   Scattered Clouds
12:58 AM 43.9 °F - 43.9 °F 100% 30.03 in 10.0 mi NW 2.3 mph - N/A   Overcast
1:58 AM 43.7 °F 42.1 °F 43.7 °F 100% 30.02 in 10.0 mi NNW 3.5 mph - N/A   Scattered Clouds
2:58 AM 44.4 °F - 44.4 °F 100% 30.02 in 10.0 mi WNW 2.3 mph - N/A   Partly Cloudy
3:58 AM 41.9 °F - 41.9 °F 100% 30.01 in 10.0 mi East 2.3 mph - N/A   Clear
4:58 AM 42.1 °F - 42.1 °F 100% 30.03 in 10.0 mi Calm Calm - N/A   Clear
5:43 AM 39.2 °F - 39.2 °F 100% 30.03 in 1.5 mi Calm Calm - N/A   Clear
5:48 AM 39.2 °F - 39.2 °F 100% 30.04 in 1.0 mi Calm Calm - N/A   Clear
5:53 AM 37.4 °F - 37.4 °F 100% 30.04 in 1.5 mi Calm Calm - N/A   Clear
5:58 AM 37.4 °F - 37.4 °F 100% 30.05 in 1.2 mi Calm Calm - N/A   Clear
6:08 AM 39.2 °F - 39.2 °F 100% 30.05 in 4.0 mi Calm Calm - N/A   Clear
6:43 AM 37.4 °F - 37.4 °F 100% 30.06 in 2.5 mi NNW 2.3 mph - N/A   Clear
6:48 AM 37.4 °F - 37.4 °F 100% 30.07 in 4.0 mi NNW 2.3 mph - N/A   Clear
6:58 AM 37.8 °F - 37.8 °F 100% 30.07 in 3.0 mi NNW 1.2 mph - N/A   Clear
7:08 AM 37.4 °F - 37.4 °F 100% 30.06 in 2.5 mi NE 2.3 mph - N/A   Clear
7:13 AM 37.4 °F - 37.4 °F 100% 30.06 in 1.5 mi NNE 2.3 mph - N/A   Clear
7:23 AM 39.2 °F 35.9 °F 39.2 °F 100% 30.07 in 5.0 mi NW 4.6 mph - N/A   Clear
7:58 AM 41.9 °F - 41.9 °F 100% 30.10 in 10.0 mi NE 2.3 mph - N/A   Clear
8:58 AM 49.3 °F - 43.9 °F 82% 30.11 in 10.0 mi West 4.6 mph - N/A   Clear
9:58 AM 55.2 °F - 36.1 °F 49% 30.11 in 10.0 mi Variable 1.2 mph - N/A   Clear
10:58 AM 57.9 °F - 35.8 °F 44% 30.09 in 10.0 mi Calm Calm - N/A   Clear
11:58 AM 62.1 °F - 32.7 °F 33% 30.05 in 10.0 mi SSW 3.5 mph - N/A   Clear
12:58 PM 64.9 °F - 37.8 °F 37% 30.02 in 10.0 mi West 8.1 mph - N/A   Partly Cloudy
1:58 PM 63.7 °F - 38.5 °F 39% 30.00 in 10.0 mi SSW 10.4 mph - N/A   Scattered Clouds
2:58 PM 64.0 °F - 43.0 °F 46% 30.01 in 10.0 mi SSW 9.2 mph - N/A   Partly Cloudy
3:58 PM 61.0 °F - 46.2 °F 58% 30.00 in 10.0 mi SSW 9.2 mph - N/A   Clear
4:58 PM 56.3 °F - 44.1 °F 64% 30.01 in 10.0 mi SSE 3.5 mph - N/A   Clear
5:58 PM 54.5 °F - 46.9 °F 76% 30.01 in 10.0 mi East 4.6 mph - N/A   Clear
6:58 PM 52.2 °F - 46.2 °F 80% 30.02 in 10.0 mi Calm Calm - N/A   Clear
7:58 PM 49.8 °F - 46.0 °F 87% 30.02 in 10.0 mi ENE 3.5 mph - N/A   Clear
8:58 PM 48.0 °F - 44.8 °F 89% 30.03 in 10.0 mi ENE 4.6 mph - N/A   Clear
9:58 PM 47.8 °F - 44.2 °F 87% 30.03 in 10.0 mi East 4.6 mph - N/A   Clear
10:58 PM 46.9 °F - 42.8 °F 86% 30.05 in 10.0 mi ENE 4.6 mph - N/A   Clear
11:58 PM 44.1 °F 42.5 °F 41.2 °F 90% 30.05 in 10.0 mi NNE 3.5 mph - N/A   Clear